Redmond, OR

11:29 AM PST on November 14, 2019 (GMT -0800)
Roberts Field Airport

Weather History for KRDM - October, 2019

Change the Weather History Date:

Wednesday, October 23, 2019

  Actual Average Record
Temperature  
Mean Temperature 44 °F 45 °F  
Max Temperature 61 °F 60 °F 82 °F (1965)
Min Temperature 27 °F 30 °F 18 °F (1980)
Degree Days  
Heating Degree Days 21 20  
Month to date heating degree days 437 376  
Since 1 July heating degree days 702 775  
Cooling Degree Days 0 0  
Month to date cooling degree days 0 0  
Year to date cooling degree days 293 222  
Moisture  
Dew Point 28 °F    
Average Humidity 56    
Maximum Humidity 85    
Minimum Humidity 26    
Precipitation  
Precipitation 0.00 in 0.02 in 0.19 in (1951)
Month to date precipitation 0.28 0.43  
Year to date precipitation 9.27 6.57  
Sea Level Pressure  
Sea Level Pressure 30.42 in    
Wind  
Wind Speed 5 mph (SSW)    
Max Wind Speed 13 mph    
Max Gust Speed 16 mph    
Visibility 10 miles    
Events      
T = Trace of Precipitation, MM = Missing Value Source: NWS Daily Summary

Daily Weather History Graph

Daily Weather History Graph

Search for Another Location

Airport or City:

Astronomy

Oct. 23, 2019 Rise Set
Actual Time 7:29 AM PDT 6:07 PM PDT
Civil Twilight 6:59 AM PDT 6:37 PM PDT
Nautical Twilight 6:26 AM PDT 7:10 PM PDT
Astronomical Twilight 5:52 AM PDT 7:44 PM PDT
Moon 1:38 AM PDT (10/23) 4:15 PM PDT (10/23)
Length of Visible Light 11h 37m
Length of Day
10h 38m
Waning Crescent, 25% of the Moon is Illuminated
Oct 23
Waning Crescent
Oct 27
New
Nov 4
First Quarter
Nov 12
Full
Nov 19
Last Quarter

Hourly Weather History & Observations

Time (PDT) Temp. Windchill Dew Point Humidity Pressure Visibility Wind Dir Wind Speed Gust Speed Precip Events Conditions
12:56 AM 39.0 °F 33.4 °F 32.0 °F 76% 30.35 in 10.0 mi South 8.1 mph - N/A   Clear
1:56 AM 36.0 °F 31.1 °F 30.0 °F 79% 30.37 in 10.0 mi SSE 5.8 mph - N/A   Clear
2:56 AM 35.1 °F 27.9 °F 28.9 °F 78% 30.37 in 10.0 mi South 9.2 mph - N/A   Clear
3:56 AM 35.1 °F 29.3 °F 28.9 °F 78% 30.37 in 10.0 mi South 6.9 mph - N/A   Clear
4:56 AM 33.1 °F 28.7 °F 27.0 °F 78% 30.37 in 10.0 mi SSE 4.6 mph - N/A   Clear
5:56 AM 28.9 °F - 25.0 °F 85% 30.40 in 10.0 mi Calm Calm - N/A   Clear
6:56 AM 30.0 °F 25.2 °F 24.1 °F 79% 30.42 in 10.0 mi SSE 4.6 mph - N/A   Clear
7:56 AM 30.9 °F 27.5 °F 25.0 °F 79% 30.43 in 10.0 mi SSE 3.5 mph - N/A   Clear
8:56 AM 37.9 °F 34.4 °F 28.9 °F 70% 30.46 in 10.0 mi SSE 4.6 mph - N/A   Clear
9:56 AM 45.0 °F - 28.0 °F 52% 30.45 in 10.0 mi Calm Calm - N/A   Clear
10:56 AM 51.1 °F - 28.9 °F 43% 30.46 in 10.0 mi Variable 5.8 mph - N/A   Clear
11:56 AM 55.0 °F - 26.1 °F 33% 30.45 in 10.0 mi Variable 4.6 mph - N/A   Clear
12:56 PM 57.9 °F - 28.9 °F 33% 30.43 in 10.0 mi Variable 6.9 mph - N/A   Clear
1:56 PM 60.1 °F - 28.0 °F 30% 30.43 in 10.0 mi NW 8.1 mph - N/A   Clear
2:56 PM 59.0 °F - 28.0 °F 31% 30.43 in 10.0 mi NW 6.9 mph - N/A   Clear
3:56 PM 60.1 °F - 30.0 °F 32% 30.42 in 10.0 mi NNW 9.2 mph - N/A   Clear
4:56 PM 59.0 °F - 25.0 °F 27% 30.42 in 10.0 mi NNW 8.1 mph - N/A   Clear
5:56 PM 55.0 °F - 28.9 °F 37% 30.43 in 10.0 mi NNW 6.9 mph - N/A   Clear
6:56 PM 50.0 °F - 30.0 °F 46% 30.43 in 10.0 mi NNW 6.9 mph - N/A   Clear
7:56 PM 42.1 °F - 28.9 °F 60% 30.45 in 10.0 mi Calm Calm - N/A   Clear
8:56 PM 42.1 °F 40.2 °F 28.9 °F 60% 30.45 in 10.0 mi West 3.5 mph - N/A   Clear
9:56 PM 41.0 °F 37.1 °F 28.9 °F 62% 30.45 in 10.0 mi WSW 5.8 mph - N/A   Clear
10:56 PM 36.0 °F 31.1 °F 26.1 °F 67% 30.45 in 10.0 mi South 5.8 mph - N/A   Clear
11:56 PM 34.0 °F 29.8 °F 26.1 °F 73% 30.45 in 10.0 mi SSE 4.6 mph - N/A   Clear